Location: Dompnac
(44.5644°N, 4.1026°E)
Time: 09:21:34
(UTC+00:00)

OBJECT-B - Visible Passes

Search period start: 20 June 2021 00:00
Search period end: 30 June 2021 00:00
Orbit: 414 x 423 km, 97.0° (Epoch: 05 June)

Date Brightness Start Highest point End Pass type
(mag) Time Alt. Az. Time Alt. Az. Time Alt. Az.
25 Jun 2.9 20:03:37 10° SSW 20:06:21 26° W 20:09:06 10° NW visible
27 Jun 3.0 20:06:04 10° SSW 20:08:44 24° W 20:11:25 10° NW visible
29 Jun 3.2 20:08:29 10° SSW 20:11:04 22° W 20:13:41 10° NW visible
